Regional Weather Roundup
Issued by NWS

Home | Current Version | Previous Version | Graphics & Text | Print | Product List | Glossary On
Versions: 1 2 3 4 5 6 7 8 9 10 11 12 13 14 15 16 17 18 19 20 21 22 23 24 25 26 27 28 29 30 31 32 33 34 35 36 37 38 39 40 41 42 43 44 45 46 47 48 49 50
000
ASUS45 KCYS 300310
RWRWY

WYOMING REGIONAL WEATHER ROUNDUP
NATIONAL WEATHER SERVICE CHEYENNE WY
900 PM MDT FRI AUG 29 2014

NOTE:  "FAIR" INDICATES FEW OR NO CLOUDS BELOW 12,000 FEET
WITH NO SIGNIFICANT WEATHER AND/OR OBSTRUCTIONS TO VISIBILITY.

WYZ001-300400-
YELLOWSTONE NATIONAL PARK

CITY           SKY/WX    TMP DP  RH WIND       PRES   REMARKS
LK YELLOWSTONE   N/A     49  44  83 NW3       30.22R
W YELLOWSTONE  NOT AVBL

$$
WYZ002>013-054>058-071-098>099-300400-
NORTHERN WYOMING

CITY           SKY/WX    TMP DP  RH WIND       PRES   REMARKS
JACKSON        CLEAR     63  43  48 CALM      30.11R
CODY           PTCLDY    70  45  40 S5        30.00R
GREYBULL       CLEAR     74  47  38 CALM      29.92R
WORLAND        CLEAR     71  41  33 SE12      29.93R
SHERIDAN       CLEAR     63  51  65 S5        29.98R
BUFFALO        CLEAR     63  48  58 S6        30.06R
GILLETTE       CLEAR     57  51  80 SW5       30.02R
HULETT         FAIR      59  52  77 MISG      30.04
NEWCASTLE      FAIR      63  50  63 MISG      30.04

$$
WYZ014>020-022>026-101>103-300400-
CENTRAL WYOMING

CITY           SKY/WX    TMP DP  RH WIND       PRES   REMARKS
BIG PINEY      PTCLDY    58  41  53 N7        30.18R
PINEDALE       CLEAR     54  43  66 W5        30.19R
DUBOIS         FAIR      61  36  39 NW5       30.16R
LANDER         PTCLDY    70  42  36 SW14      30.02R
RIVERTON       PTCLDY    70  38  31 NE8       30.02R
CASPER         CLEAR     66  43  43 E12       30.05R
DOUGLAS        CLEAR     61  51  70 E8        30.08R

$$
WYZ021-027>030-104>119-300400-
SOUTHERN WYOMING

CITY           SKY/WX    TMP DP  RH WIND       PRES   REMARKS
EVANSTON       MOCLDY    64  40  41 SW6       30.20R
KEMMERER       PTCLDY    63  37  39 CALM      30.21R
FORT BRIDGER   FAIR      62  42  47 S9        30.23R
ROCK SPRINGS   NOT AVBL
DIXON          FAIR      62  49  64 W3        30.20S
RAWLINS        PTCLDY    59  40  49 CALM      30.17R
SARATOGA       MOCLDY    61  46  59 SW9       30.20R
LARAMIE        MOCLDY    55  47  74 S10       30.21R
CHEYENNE       MOCLDY    57  50  77 SW9       30.18R
TORRINGTON     CLEAR     65  52  62 E10       30.05R
PINE BLUFFS    FAIR      59  50  72 S5        30.13R

$$



USA.gov is the U.S. government's official web portal to all federal, state and local government web resources and services.